Port Edwards, WI

5:04 AM CDT on September 27, 2016 (GMT -0500)
Alexander Field South Wood County

Weather History for KISW - April, 2014

Change the Weather History Date:

Monday, April 7, 2014

  Actual Average Record
Temperature  
Mean Temperature 46 °F -  
Max Temperature 60 °F 54 °F 81 °F (1991)
Min Temperature 36 °F 28 °F 2 °F (1982)
Degree Days  
Heating Degree Days 18    
Moisture  
Dew Point 40 °F    
Average Humidity 80    
Maximum Humidity 100    
Minimum Humidity 53    
Precipitation  
Precipitation 0.28 in - - ()
Sea Level Pressure  
Sea Level Pressure 29.77 in    
Wind  
Wind Speed 3 mph (WNW)    
Max Wind Speed 9 mph    
Max Gust Speed -    
Visibility 8 miles    
Events Rain    
Averages and records for this station are not official NWS values.
T = Trace of Precipitation, MM = Missing Value Source: NWS Daily Summary

Daily Weather History Graph

Daily Weather History Graph

Search for Another Location

Airport or City:

Trip Planner

Search our weather history database for the weather conditions in past years. The results will help you decide how hot, cold, wet, or windy it might be!

Date:

Astronomy

Apr. 07, 2014 Rise Set
Actual Time 6:29 AM CDT 7:34 PM CDT
Civil Twilight 5:59 AM CDT 8:03 PM CDT
Nautical Twilight 5:24 AM CDT 8:39 PM CDT
Astronomical Twilight 4:47 AM CDT 9:16 PM CDT
Moon 12:19 PM CDT (4/7) 2:17 AM CDT (4/7)
Length of Visible Light 14h 03m
Length of Day
13h 04m
First Quarter, 53% of the Moon is Illuminated
Apr 7
First Quarter
Apr 15
Full
Apr 22
Last Quarter
Apr 29
New
May 6
First Quarter

Hourly Weather History & Observations

Time (CDT) Temp. Windchill Dew Point Humidity Pressure Visibility Wind Dir Wind Speed Gust Speed Precip Events Conditions
12:54 AM 43.0 °F 40.3 °F 36.0 °F 76% 29.90 in 10.0 mi South 4.6 mph - N/A   Clear
1:54 AM 39.0 °F - 34.0 °F 82% 29.89 in 10.0 mi Calm Calm - N/A   Clear
2:54 AM 36.0 °F - 33.1 °F 89% 29.87 in 10.0 mi Calm Calm - N/A   Clear
3:54 AM 37.0 °F 33.3 °F 33.1 °F 86% 29.85 in 10.0 mi SSW 4.6 mph - N/A   Overcast
4:54 AM 37.9 °F - 33.1 °F 83% 29.84 in 10.0 mi Calm Calm - N/A   Scattered Clouds
5:54 AM 37.0 °F 34.5 °F 33.1 °F 86% 29.84 in 10.0 mi South 3.5 mph - N/A   Overcast
6:54 AM 37.9 °F - 33.1 °F 83% 29.85 in 10.0 mi Calm Calm - N/A   Mostly Cloudy
7:54 AM 41.0 °F - 35.1 °F 79% 29.86 in 10.0 mi Calm Calm - N/A   Overcast
8:54 AM 45.0 °F 43.5 °F 35.1 °F 68% 29.83 in 10.0 mi SSW 3.5 mph - N/A   Overcast
9:54 AM 46.0 °F - 37.0 °F 71% 29.82 in 10.0 mi Calm Calm - 0.00 in   Overcast
10:54 AM 48.0 °F - 39.0 °F 71% 29.81 in 10.0 mi Calm Calm - 0.00 in   Mostly Cloudy
11:54 AM 51.1 °F - 41.0 °F 68% 29.79 in 10.0 mi Calm Calm - N/A   Overcast
12:54 PM 54.0 °F - 41.0 °F 62% 29.77 in 10.0 mi Calm Calm - N/A   Mostly Cloudy
1:54 PM 57.9 °F - 41.0 °F 53% 29.73 in 10.0 mi Calm Calm - N/A   Mostly Cloudy
3:50 PM 50.0 °F - 44.6 °F 82% 29.70 in 2.5 mi West 9.2 mph - 0.06 in Rain Heavy Rain
3:54 PM 50.0 °F - 45.0 °F 83% 29.72 in 1.5 mi WNW 5.8 mph - 0.09 in Rain Heavy Rain
4:14 PM 48.9 °F - 46.0 °F 90% 29.69 in 3.0 mi SSW 5.8 mph - 0.11 in Rain Light Rain
4:36 PM 50.0 °F - 46.9 °F 89% 29.69 in 2.0 mi Calm Calm - 0.14 in Rain Rain
4:50 PM 51.8 °F - 46.4 °F 82% 29.69 in 7.0 mi NNW 3.5 mph - 0.15 in Rain Light Rain
4:54 PM 53.1 °F - 46.9 °F 80% 29.71 in 10.0 mi NNW 8.1 mph - 0.15 in   Overcast
5:54 PM 50.0 °F - 44.1 °F 80% 29.72 in 10.0 mi North 9.2 mph - 0.00 in Rain Light Rain
6:54 PM 48.0 °F - 45.0 °F 89% 29.72 in 5.0 mi NW 6.9 mph - 0.03 in Rain Light Rain
7:54 PM 46.0 °F 43.1 °F 46.0 °F 100% 29.72 in 5.0 mi NNW 5.8 mph - 0.01 in Rain Light Rain
8:54 PM 46.9 °F - 45.0 °F 93% 29.73 in 8.0 mi NNW 4.6 mph - 0.00 in   Overcast
9:54 PM 45.0 °F 40.1 °F 39.9 °F 82% 29.73 in 10.0 mi NNW 9.2 mph - 0.00 in   Overcast
10:54 PM 43.0 °F 37.7 °F 36.0 °F 76% 29.72 in 10.0 mi North 9.2 mph - N/A   Partly Cloudy
11:54 PM 41.0 °F 35.2 °F 35.1 °F 79% 29.72 in 10.0 mi NNW 9.2 mph - N/A   Clear